Regional Weather Roundup
Issued by NWS

Home | Current Version | Previous Version | Graphics & Text | Print | Product List | Glossary On
Versions: 1 2 3 4 5 6 7 8 9 10 11 12 13 14 15 16 17 18 19 20 21 22 23 24 25 26 27 28 29 30 31 32 33 34 35 36 37 38 39 40 41 42 43 44 45 46 47 48 49 50
000
ASUS43 KDTX 060910
RWRMI
MICHIGAN HOURLY REGIONAL WEATHER ROUNDUP
NATIONAL WEATHER SERVICE DETROIT/PONTIAC MI
500 AM EDT WED MAY 06 2015

NOTE: "FAIR" INDICATES FEW OR NO CLOUDS BELOW 12,000 FEET WITH NO
SIGNIFICANT WEATHER AND/OR OBSTRUCTION TO VISIBILITY.

MIZ047>049-052>055-059>063-066>070-074>076-081>083-061000-
SOUTHEAST LOWER MICHIGAN

CITY           SKY/WX    TMP DP  RH WIND       PRES   REMARKS
ADRIAN         CLOUDY    51  51 100 E7        30.24S FOG
ALMA           CLOUDY    50  48  92 CALM      30.26S
ANN ARBOR      CLOUDY    51  50  96 NE3       30.24S FOG
BAD AXE        PTCLDY    39  37  93 CALM      30.27F
CARO           MOCLDY    45  44  98 CALM      30.27R FOG
DETROIT CITY   CLOUDY    50  47  89 NE5       30.25F
DETROIT        CLOUDY    52  50  93 N5        30.25S FOG
FLINT          CLOUDY    53  46  77 E5        30.25F
GROSSE ILE     CLOUDY    52  48  87 N5        30.24R FOG
HILLSDALE      FOG       52  52 100 E5        30.22S VSB<1/4
HOWELL         CLOUDY    51  50  99 E5        30.24S FOG

CITY           SKY/WX    TMP DP  RH WIND       PRES   REMARKS
JACKSON        CLOUDY    52  51  97 E5        30.23S FOG
LAMBERTVILLE   CLOUDY    52  50  93 E3        30.24R FOG
LANSING        CLOUDY    52  50  93 E5        30.25S FOG
LAPEER         CLOUDY    46  46 100 CALM      30.26S
MASON          CLOUDY    51  49  94 E5        30.24S FOG
MONROE         CLOUDY    52  52 100 NE5       30.23R FOG
PONTIAC        CLOUDY    50  45  83 E5        30.24F
PORT HOPE        N/A     41  38  89 E5        30.27S
PORT HURON     CLOUDY    45  43  93 CALM      30.26F
TRI CITIES     CLOUDY    50  47  89 NE7       30.27S FOG
MIDLAND        FAIR      46  46  97 CALM      30.26F
TROY           CLOUDY    51  48  87 NE7       30.27S
SAGINAW HB     CLOUDY    45  45 100 N3        30.26S
$$
MIZ043>046-050>051-056>058-064>065-071>073-077>080-061000-
SOUTHWEST LOWER MICHIGAN

CITY           SKY/WX    TMP DP  RH WIND       PRES   REMARKS
BATTLE CREEK   CLOUDY    52  50  93 E3        30.23S FOG
BENTON HARBOR  FOG       52  52 100 E6        30.20S VSB 3/4
BIG RAPIDS     CLOUDY    51  43  75 SE5       30.24S
COLDWATER      FOG       51  51  99 SE5       30.22S VSB 3/4
FREMONT        RAIN      51  45  79 E6        30.22S
HOLLAND        CLOUDY    53  51  93 E6        30.22S FOG
GRAND RAPIDS   CLOUDY    53  50  89 E8        30.23S FOG
IONIA          DRIZZLE   52  48  86 E5        30.23S
KALAMAZOO      CLOUDY    52  50  93 E5        30.22S FOG
LUDINGTON      CLOUDY    53  44  70 CALM      30.23R
MARSHALL       CLOUDY    51  50  99 NW3       30.23R FOG
MOUNT PLEASANT CLOUDY    48  45  91 CALM      30.26S
MUSKEGON       CLOUDY    53  48  83 E9        30.22S
SOUTH HAVEN      N/A     51  50  95 E3        30.21S FOG
$$
MIZ016>042-061000-
NORTHERN LOWER MICHIGAN

CITY           SKY/WX    TMP DP  RH WIND       PRES   REMARKS
ALPENA         FOG       32  31  96 CALM      30.28S VSB 1/4
BEAVER ISLAND  PTCLDY    39  33  78 SE5       30.25S
BELLAIRE       PTCLDY    38  36  89 CALM      30.26S
CADILLAC       MOCLDY    46  37  71 NE5       30.23F
CHARLEVOIX     PTCLDY    44  35  69 SE3       30.27F
FRANKFORT      PTCLDY    45  32  60 CALM      30.23F
GAYLORD        PTCLDY    39  32  76 CALM      30.26S
GRAYLING       PTCLDY    34  31  89 CALM      30.27S
HARBOR SPRINGS PTCLDY    42  36  80 NE6       30.25F
HOUGHTON LAKE  MOCLDY    39  37  92 NE3       30.27S
MANISTEE       MOCLDY    48  37  66 E5        30.23F
OSCODA         FOG       35  34  99 CALM      30.28F VSB<1/4
PELLSTON       PTCLDY    32  28  85 CALM      30.27S
ROGERS CITY    CLEAR     40  38  93 CALM      30.28S
TRAVERSE CITY  MOCLDY    41  36  82 CALM      30.24S
$$
MIZ007>008-015-061000-
EASTERN UPPER MICHIGAN

CITY           SKY/WX    TMP DP  RH WIND       PRES   REMARKS
KINROSS        CLEAR     43  32  65 CALM      30.27R
MACKINAC ISLAN CLEAR     44  35  72 S6        30.26S
NEWBERRY       CLEAR     44  29  55 S14       30.25S
S. S. MARIE    CLEAR     42  31  64 E5        30.27R
MUNISING         N/A     39  31  72 VRB3      30.23S
$$
MIZ004>006-011>014-085-061000-
CENTRAL UPPER MICHIGAN

CITY           SKY/WX    TMP DP  RH WIND       PRES   REMARKS
MANISTIQUE     CLEAR     37  31  76 E3        30.24S
ESCANABA       MOCLDY    37  34  87 CALM      30.22S
MENOMINEE      CLOUDY    48  34  57 CALM      30.22R
SAWYER-GWINN   PTCLDY    35  28  74 CALM      30.23S
$$
MIZ001>003-009>011-084-061000-
WESTERN UPPER MICHIGAN

CITY           SKY/WX    TMP DP  RH WIND       PRES   REMARKS
IRON MOUNTAIN  CLOUDY    38  33  82 CALM      30.21F
HOUGHTON       PTCLDY    48  29  47 SE6       30.19F
COPPER HARBOR    N/A     53  27  36 SW12G18   30.18F
IRONWOOD       MOCLDY    54  27  35 SE5       30.15S
$$

ABBREVIATIONS USED IN REMARKS
   TC - TEMPERATURE IN CELSIUS
  WCI - WIND CHILL INDEX
   HX - HEAT INDEX
  VSB - VISIBILITY



USA.gov is the U.S. government's official web portal to all federal, state and local government web resources and services.